Regional Weather Roundup
Issued by NWS San Diego, CA

Home | Current Version | Previous Version | Text Only | Print | Product List | Glossary On
Versions: 1 2 3 4 5 6 7 8 9 10 11 12 13 14 15 16 17 18 19 20 21 22 23 24 25 26 27 28 29 30 31 32 33 34 35 36 37 38 39 40 41 42 43 44 45 46 47 48 49 50
000
ASUS46 KSGX 261810
RWRSGX

SAN DIEGO HOURLY WEATHER ROUNDUP
NATIONAL WEATHER SERVICE SAN DIEGO CA
1000 AM PST FRI DEC 26 2014

NOTE: "FAIR" INDICATES FEW OR NO CLOUDS BELOW 12,000 FEET WITH NO
SIGNIFICANT WEATHER AND/OR OBSTRUCTIONS TO VISIBILITY.

CAZ042-043-060-061-PZZ750-775-261900-

GREATER SAN DIEGO AREA

CITY           SKY/WX    TMP DP  RH WIND       PRES   REMARKS
LINDBERGH FLD  FAIR      58  17  20 CALM      30.09R
POINT LOMA       N/A     61  28  28 E3          N/A
NATIONAL CITY    N/A     59  24  26 S2        30.09R
CHULA VISTA      N/A     60  29  30 CALM      30.01R
IMPERIAL BEACH FAIR      60  19  20 E13       30.07S
BROWN FIELD    FAIR      58  18  21 SE17      30.07R
MIRAMAR MCAS   FAIR      58  19  22 VRB7      30.07R
MONTGOMERY FLD FAIR      56  22  26 VRB6      30.08R

$$

NORTH SAN DIEGO COUNTY

CITY           SKY/WX    TMP DP  RH WIND       PRES   REMARKS
CAMP PENDLETON FAIR      58  15  18 NE15      30.09R
OCEANSIDE AP   FAIR      57  25  29 E7        30.08R
OCEANSIDE HBR    N/A     58  26  29 NE3       30.11R
VISTA            N/A     55  26  33 NE3       30.08R
CARLSBAD       FAIR      57  21  24 CALM      30.08R
DEL MAR          N/A     56  33  41 CALM      30.11R
LA JOLLA SCRIP   N/A     57  30  35 CALM      30.06R
FALLBROOK        N/A     55  22  28 NW6       30.11R
ESCONDIDO        N/A     57  28  33 SE1       30.10R
SAN MARCOS       N/A     56  27  32 CALM      30.07R
POWAY            N/A     52  36  53 N1        30.12R

$$

EAST SAN DIEGO COUNTY

CITY           SKY/WX    TMP DP  RH WIND       PRES   REMARKS
RAMONA         FAIR      53  22  29 S3        30.06R
SANTEE LAKES     N/A     51  36  57 CALM      30.10R
LA MESA          N/A     55  27  33 CALM      30.03R
JAMUL            N/A     56  25  30 SE7       30.08R
DESCANSO N       N/A     47  18  31 E9        30.02R
MT. LAGUNA OBS   N/A     31   8  38 NE3       29.60R
CAMPO            N/A     46  12  25 NE21G26   30.02R

$$

ORANGE COUNTY AND THE LOS ANGELES BASIN

CITY           SKY/WX    TMP DP  RH WIND       PRES   REMARKS
JOHN WAYNE AP  FAIR      63  11  13 NE12      30.09R
LAGUNA BEACH     N/A     59  27  29 CALM      30.05R
LAKE FOREST FR   N/A     55  10  16 E9        29.98R
SANTA ANA        N/A     61  20  21 N1        30.04R
HUNTINGTON BCH   N/A     60  21  22 E12       30.11R
LOS ALAMITOS   SUNNY     59  20  22 E18       30.09R
FULLERTON      FAIR      59  15  18 E15       30.09R
LONG BEACH     FAIR      58  20  22 E12       30.10R
L.A. AP        FAIR      55  19  24 S3        30.10R
L.A. DOWNTOWN  FAIR      56  20  24 CALM      30.10R

$$

THE INLAND EMPIRE

CITY           SKY/WX    TMP DP  RH WIND       PRES   REMARKS
CORONA         FAIR      57  14  18 NE12G18   30.11R
CHINO          FAIR      56  16  20 E17G28    30.08S
ONTARIO        FAIR      55  13  18 NE21G39   30.07R
RIVERSIDE AP   FAIR      56  10  16 NE9G21    30.09R
RIV CYN CREST    N/A     54  28  35 NE7         N/A
MORENO VALLEY    N/A     53  24  33 CALM      29.27R
MARCH ARB      FAIR      50  15  25 NE7       30.09R
HORSETHIEF CYN   N/A     51  10  19 NW6       30.11R
PERRIS           N/A     51  29  42 CALM      30.10R
MENIFEE          N/A     50  28  43 E3        30.15R
HEMET EAST       N/A     45  16  31 CALM      30.12R
FRENCH VALLEY  FAIR      48  21  34 N5        30.09R
TEMECULA         N/A     49  30  46 NW6       30.04R

$$

SAN BERNARDINO AND RIVERSIDE COUNTY MOUNTAINS

CITY           SKY/WX    TMP DP  RH WIND       PRES   REMARKS
BIG BEAR AP    FAIR      27   5  39 NW8       30.03R WCI  18
ANGELUS OAKS     N/A     31   8  37 CALM      30.11R
PINE COVE        N/A     32  10  40 W2        30.16R

$$

SOUTHERN DESERT INCLUDING THE COACHELLA VALLEY

CITY           SKY/WX    TMP DP  RH WIND       PRES   REMARKS
PALM SPRINGS   FAIR      58  10  15 VRB5      30.15R
THOUSAND PALMS   N/A     58  15  18 NE3       30.10R
PALM DESERT      N/A     59  17  19 CALM      30.34F
THERMAL        FAIR      60  13  15 NW13      30.11R
BLYTHE         FAIR      53  16  23 CALM      30.10R
IMPERIAL AP    FAIR      57  24  28 N9        30.11S
EL CENTRO NAS  FAIR      58  20  22 NW7       30.12S
YUMA AZ        FAIR      60  14  16 VRB3      30.10R
MEXICALI       SUNNY     55  14  19 NW9       30.12

$$

UPPER DESERT

CITY           SKY/WX    TMP DP  RH WIND       PRES   REMARKS
VICTORVILLE AP   N/A     41  12  30 CALM      30.13R
HESPERIA         N/A     40  19  41 N2        30.36R
PALMDALE       FAIR      41  21  44 NE3       30.14R
LANCASTER      FAIR      40  21  46 NE3       30.16R
EDWARDS AFB    FAIR      32  25  74 W5        29.99S WCI  27
DAGGETT        FAIR      48  11  22 N16       30.15R
29 PALMS N     FAIR      47  11  23 NW15      30.18R
NEEDLES        FAIR      52  14  22 N13       30.09S

$$

REGIONAL REPORTS

CITY           SKY/WX    TMP DP  RH WIND       PRES   REMARKS
SANTA BARBARA  FAIR      59  32  36 CALM      30.11R
SANDBERG       FAIR      37  12  35 E16G23    30.10R WCI  28
MT. WILSON       N/A     37   1  22 NE3G9       N/A
LAS VEGAS NV   FAIR      46   9  22 NW16G30   30.06R
PHOENIX AZ     FAIR      49  18  29 CALM      30.04R
TIJUANA        SUNNY     57  12  17 E14       30.09R
ENSENADA NW      N/A     61  32  34 E22       30.05R

$$

OFFSHORE ISLANDS

CITY           SKY/WX    TMP DP  RH WIND       PRES   REMARKS
CATALINA ARPT  FAIR      53  25  33 E16G22    30.09R
SAN CLEMENTE I SUNNY     60  35  38 E9        30.07R
SAN NICOLAS IS FAIR      58  31  35 NE14      30.10R

$$

MARINE AND OFFSHORE BUOY REPORTS

STATION/POSITION SKY/WX   TEMP    WIND        PRES    SWELL
                          AIR SEA DIR/SP/G            HT/PER/DIR
                          (F)     (DEG/KT/KT) (MB)    (FT/S/D)
TANNER BANKS               60 63   10/ 14/ 17 1018.5R  10/310/11
S CLEMENTE BASIN           59 64   80/ 12/ 16 1018.1R   7/300/15
SAN NICOLAS IS.               61                N/A     7/310/12
SO. S. ROSA ISLA           56 59  350/  6/  8 1019.7R  10/11
W. S. BARBARA CH           54 61  350/ 12/ 14 1019.5R  10/310/11
S. MONICA BASIN            57 63   60/ 17/ 23 1019.3R   2/290/14
S PEDRO CHANNEL               63                N/A     3/280/14
DANA POINT                    63                N/A     3/280/13
CMP PENDLETON NS              63                N/A     2/240/14
OCEANSIDE OFFSHR              64                N/A     2/260/14
TORREY PINES OTR              64                N/A     3/280/13
LA JOLLA 1                 58 63  150/  4/  7 1018.6R
MISSION BAY BUOY              64                N/A     5/280/14
SAN DIEGO BAY                 64              1019.1R
POINT LOMA SOUTH              64                N/A     3/260/13

$$




USA.gov is the U.S. government's official web portal to all federal, state and local government web resources and services.